K0HYD Weather Reports


Display with metric or nautical units.
time (UTC)temp
F
wind
direction
speed
MPH
gust
MPH
rain 1hr
in
rain 24hr
in
rain mn
in
humidity
%
barometer
mb
20260509083207 52 252 0.0 0.0 0.00 0.00 0.00 78 1010.0
20260509081706 51 250 0.0 0.0 0.00 0.00 0.00 79 1010.0
20260509080205 49 222 0.0 0.0 0.00 0.00 0.00 82 1010.1
20260509074704 49 214 0.0 0.0 0.00 0.00 0.00 84 1009.9
20260509073203 49 231 0.0 0.0 0.00 0.00 0.00 80 1010.0
20260509071702 50 231 0.0 0.0 0.00 0.00 0.00 82 1010.1
20260509064700 49 228 0.0 0.0 0.00 0.00 0.00 84 1009.9
20260509063200 48 229 0.0 0.0 0.00 0.00 0.00 88 1010.0
20260509060157 49 228 0.0 0.0 0.00 0.00 0.00 82 1009.9
20260509054657 50 228 0.0 0.0 0.00 0.00 0.00 82 1010.0
20260509053155 50 228 0.0 0.0 0.00 0.00 0.00 82 1009.8
20260509050153 52 228 0.0 0.0 0.00 0.00 0.00 80 1009.9
20260509044653 52 228 0.0 0.0 0.00 0.00 0.00 81 1010.0
20260509041651 51 13 0.0 0.0 0.00 0.00 0.00 78 1009.9
20260509040150 52 13 0.0 0.0 0.00 0.00 0.00 77 1009.8
20260509034649 52 13 0.0 0.0 0.00 0.00 0.00 75 1009.9
20260509033148 53 13 0.0 0.0 0.00 0.00 0.00 73 1009.7
20260509031647 54 13 0.0 0.0 0.00 0.00 0.00 70 1009.5
20260509030146 56 13 0.0 0.0 0.00 0.00 0.00 71 1009.4
20260509024645 56 13 0.0 0.0 0.00 0.00 0.00 68 1009.2
20260509023144 57 13 0.0 0.0 0.00 0.00 0.00 66 1009.1
20260509021643 59 13 0.0 0.0 0.00 0.00 0.00 61 1008.8
20260509014641 63 13 0.0 0.0 0.00 0.00 0.00 54 1008.6
20260509013140 66 13 0.0 0.0 0.00 0.00 0.00 50 1008.5
20260509011639 68 12 0.0 0.0 0.00 0.00 0.00 46 1008.3
20260509010138 70 55 0.0 1.0 0.00 0.00 0.00 44 1008.2
20260509004637 72 312 0.0 1.0 0.00 0.00 0.00 42 1008.1
20260509003136 72 20 0.0 1.0 0.00 0.00 0.00 41 1008.0
20260509001635 73 43 0.0 1.0 0.00 0.00 0.00 41 1007.7
20260509000134 74 15 0.0 1.0 0.00 0.00 0.00 39 1007.5
20260508233133 75 63 0.0 1.0 0.00 0.00 0.00 39 1007.2
20260508231632 76 352 0.0 6.0 0.00 0.00 0.00 38 1007.2
20260508224629 77 39 1.0 4.0 0.00 0.00 0.00 36 1006.9
20260508223129 77 71 4.0 7.0 0.00 0.00 0.00 38 1006.8
20260508220127 78 253 1.0 6.0 0.00 0.00 0.00 42 1006.7
20260508214626 79 18 0.0 1.0 0.00 0.00 0.00 39 1006.5
20260508211624 79 313 0.0 6.0 0.00 0.00 0.00 38 1006.4
20260508210123 79 354 0.0 1.0 0.00 0.00 0.00 40 1006.6
20260508204622 76 39 0.0 1.0 0.00 0.00 0.00 43 1006.8
20260508203121 77 81 0.0 1.0 0.00 0.00 0.00 40 1007.0
20260508201620 79 293 0.0 1.0 0.00 0.00 0.00 43 1006.9
20260508194618 78 91 0.0 1.0 0.00 0.00 0.00 45 1007.3
20260508193117 74 221 0.0 0.0 0.00 0.00 0.00 50 1007.7
20260508191616 75 250 0.0 0.0 0.00 0.00 0.00 47 1007.8
20260508190115 75 262 0.0 0.0 0.00 0.00 0.00 46 1007.6
20260508184614 74 134 0.0 0.0 0.00 0.00 0.00 51 1007.5
20260508183113 73 266 0.0 1.0 0.00 0.00 0.00 53 1007.8
20260508181612 71 252 0.0 0.0 0.00 0.00 0.00 54 1008.5
20260508180111 69 256 0.0 0.0 0.00 0.00 0.00 59 1008.3
20260508174610 70 257 0.0 0.0 0.00 0.00 0.00 56 1007.7
20260508173109 70 283 0.0 0.0 0.00 0.00 0.00 54 1008.5
20260508171608 71 263 0.0 1.0 0.00 0.00 0.00 55 1008.6
20260508170107 71 290 0.0 5.0 0.00 0.00 0.00 54 1009.0
20260508164606 72 250 0.0 0.0 0.00 0.00 0.00 53 1008.7
20260508161605 70 222 0.0 1.0 0.00 0.00 0.00 57 1008.4
20260508160104 68 226 0.0 1.0 0.00 0.00 0.00 58 1008.5
20260508154603 68 232 0.0 2.0 0.00 0.00 0.00 59 1009.2
20260508153102 68 191 0.0 0.0 0.00 0.00 0.00 61 1008.9
20260508151601 66 263 0.0 1.0 0.00 0.00 0.00 64 1009.1
20260508150100 64 187 0.0 1.0 0.00 0.00 0.00 66 1009.3
20260508144559 63 212 0.0 2.0 0.00 0.00 0.00 68 1009.1
20260508143058 62 222 0.0 1.0 0.00 0.00 0.00 68 1009.6
20260508141557 62 269 0.0 0.0 0.00 0.00 0.00 69 1010.0
20260508134555 61 263 0.0 1.0 0.00 0.00 0.00 70 1010.2
20260508131553 59 256 0.0 0.0 0.00 0.00 0.00 72 1009.9
20260508121549 56 219 0.0 0.0 0.00 0.00 0.00 74 1009.3
20260508120048 56 233 0.0 1.0 0.00 0.00 0.00 73 1009.3
20260508114547 55 229 0.0 0.0 0.00 0.00 0.00 72 1009.3
20260508113046 56 222 0.0 0.0 0.00 0.00 0.00 71 1009.5
20260508110044 55 253 0.0 0.0 0.00 0.00 0.00 69 1009.7
20260508104543 55 222 0.0 1.0 0.00 0.00 0.00 68 1009.4
20260508103043 55 273 0.0 0.0 0.00 0.00 0.00 68 1009.6
20260508101542 55 255 0.0 0.0 0.00 0.00 0.00 68 1009.6
20260508100041 54 222 0.0 0.0 0.00 0.00 0.00 67 1009.5
20260508090037 55 229 0.0 0.0 0.00 0.00 0.00 62 1009.5
20260508084536 56 231 0.0 0.0 0.00 0.00 0.00 61 1009.5